Карточка аэропорта ULOO

Внимание!
Информация на этой странице в стадии наполнения.
Если вы не увидели какой-то информации, или заметили неточность - пожалуйста сообщите нам!
Спасибо!
Команда RU-STAFF
Название аэропортаПсков (Кресты)
Название аэропорта (англ.)Pskov (Kresty)
Превышение47 ft. (14.3 m.)
Координаты57°46.914', 28°23.652'
Высота перехода1000m
Эшелон переходаFL50-FL70
Коды ответчика
Зона ОрВДСанкт-Петербург РПИ (ULLL)
Данные METARULOO 091300Z 22003MPS 9999 BKN011 BKN026 M00/M01 Q1008 R19/590536 NOSIG RMK QFE752
Проноз погоды (TAF)
NOTAMshow/hide NOTAM
AWOS   TABLE

Информация о ВПП

ВПП Длина ВПП (м.) Покрытие Курс ВПП Частота ILS
012524Асфальтобетон9 
192524Асфальтобетон189 

Диспетчерские позиции


Сценарии



Спутниковое изображение